Location: Mascot Post Office (historical)
(40.2645°N, 99.5462°W)
Time: 02:40:52
(UTC+00:00)

Cosmos 1908 Rocket - Pass Details

Date: 14 July 2020
Orbit: 605 x 633 km, 82.5° (Epoch: 14 August)

Event Time Altitude Azimuth Distance (km) Brightness Sun altitude
Exits shadow 09:34:37 22° 181° (S) 1,378 4.9 -16.5°
Maximum altitude 09:37:28 80° 97° (E) 647 3.6 -16.2°
Drops below altitude 10° 09:41:57 10° 10° (N) 2,021 7.1 -15.6°
Sets 09:44:12 0° 9° (N) 2,931 8.0 -15.3°
